Weather History for Boone, NC

Change the Weather History Date:

Wednesday, October 16, 2013

  Actual Average (KGEV) Record (KGEV)
Temperature  
Mean Temperature 54 °F -  
Max Temperature 64 °F 66 °F 78 °F (1992)
Min Temperature 44 °F 40 °F 25 °F (1987)
Degree Days  
Heating Degree Days 11    
Growing Degree Days 4 (Base 50)    
Moisture  
Dew Point 51 °F    
Average Humidity 86    
Maximum Humidity 100    
Minimum Humidity 60    
Precipitation  
Precipitation 0.00 in - - ()
Sea Level Pressure  
Sea Level Pressure 30.09 in    
Wind  
Wind Speed 0 mph (SSE)    
Max Wind Speed 6 mph    
Max Gust Speed -    
Visibility 9 miles    
Events Rain    
Averages and records for this station are not official NWS values.
T = Trace of Precipitation, MM = Missing Value Source: NWS Daily Summary

Daily Weather History Graph

Daily Weather History Graph

Search for Another Location

Airport:

Trip Planner

Search our weather history database for the weather conditions in past years. The results will help you decide how hot, cold, wet, or windy it might be!

Date:

Astronomy

Oct. 16, 2013 Rise Set
Actual Time 7:34 AM EDT 6:48 PM EDT
Civil Twilight 7:08 AM EDT 7:14 PM EDT
Nautical Twilight 6:38 AM EDT 7:44 PM EDT
Astronomical Twilight 6:09 AM EDT 8:14 PM EDT
Moon 5:24 PM EDT (10/16) 5:04 AM EDT (10/16)
Length of Visible Light 12h 06m
Length of Day
11h 14m
Waxing Gibbous, 94% of the Moon is Illuminated
Oct 16
Waxing Gibbous
Oct 18
Full
Oct 26
Last Quarter
Nov 3
New
Nov 10
First Quarter

Hourly Weather History & Observations

Time (EDT) Temp. Dew Point Humidity Pressure Visibility Wind Dir Wind Speed Gust Speed Precip Events Conditions
12:15 AM 50.2 °F 50.2 °F 100% 30.16 in 10.0 mi Calm Calm - N/A   Clear
12:35 AM 49.3 °F 49.3 °F 100% 30.15 in 10.0 mi Calm Calm - N/A   Clear
12:55 AM 49.1 °F 49.1 °F 100% 30.14 in 7.0 mi Calm Calm - N/A   Clear
1:15 AM 48.6 °F 48.6 °F 100% 30.14 in 5.0 mi Calm Calm - N/A   Clear
1:35 AM 49.1 °F 49.1 °F 100% 30.14 in 10.0 mi Calm Calm - N/A   Clear
1:55 AM 49.1 °F 49.1 °F 100% 30.13 in 7.0 mi Calm Calm - N/A   Clear
2:15 AM 48.7 °F 48.7 °F 100% 30.13 in 7.0 mi Calm Calm - N/A   Clear
2:35 AM 48.9 °F 48.9 °F 100% 30.14 in 7.0 mi Calm Calm - N/A   Clear
2:55 AM 48.2 °F 48.2 °F 100% 30.13 in 5.0 mi Calm Calm - N/A   Clear
3:15 AM 48.0 °F 48.0 °F 100% 30.12 in 7.0 mi Calm Calm - N/A   Clear
3:35 AM 48.0 °F 48.0 °F 100% 30.11 in 7.0 mi Calm Calm - N/A   Clear
3:55 AM 48.4 °F 48.4 °F 100% 30.11 in 7.0 mi Calm Calm - N/A   Clear
4:15 AM 47.3 °F 47.3 °F 100% 30.11 in 4.0 mi Calm Calm - N/A   Clear
4:35 AM 48.2 °F 48.2 °F 100% 30.11 in 7.0 mi Calm Calm - N/A   Scattered Clouds
4:55 AM 47.7 °F 47.7 °F 100% 30.11 in 7.0 mi Calm Calm - N/A   Scattered Clouds
5:15 AM 46.9 °F 46.9 °F 100% 30.10 in 5.0 mi Calm Calm - N/A   Scattered Clouds
5:35 AM 47.1 °F 47.1 °F 100% 30.10 in 7.0 mi Calm Calm - N/A   Scattered Clouds
5:55 AM 46.4 °F 46.4 °F 100% 30.10 in 5.0 mi Calm Calm - N/A   Clear
6:15 AM 46.6 °F 46.6 °F 100% 30.10 in 7.0 mi Calm Calm - N/A   Clear
6:35 AM 46.6 °F 46.6 °F 100% 30.10 in 10.0 mi Calm Calm - N/A   Clear
6:55 AM 45.5 °F 45.5 °F 100% 30.11 in 3.0 mi Calm Calm - N/A   Clear
7:15 AM 44.6 °F 44.6 °F 100% 30.11 in 5.0 mi Calm Calm - N/A   Clear
7:35 AM 45.0 °F 45.0 °F 100% 30.12 in 4.0 mi Calm Calm - N/A   Clear
7:55 AM 45.5 °F 45.5 °F 100% 30.12 in 5.0 mi Calm Calm - N/A   Clear
8:15 AM 45.3 °F 45.3 °F 100% 30.12 in 4.0 mi Calm Calm - N/A   Clear
8:35 AM 47.5 °F 47.5 °F 100% 30.12 in 10.0 mi Calm Calm - N/A   Clear
8:55 AM 49.6 °F 48.0 °F 94% 30.12 in 10.0 mi Calm Calm - N/A   Clear
9:15 AM 51.4 °F 49.6 °F 94% 30.12 in 10.0 mi Calm Calm - N/A   Clear
9:35 AM 51.8 °F 49.6 °F 92% 30.12 in 10.0 mi Calm Calm - N/A   Clear
9:55 AM 54.9 °F 51.4 °F 88% 30.11 in 10.0 mi Calm Calm - N/A   Clear
10:15 AM 58.8 °F 49.6 °F 72% 30.12 in 10.0 mi SE 3.5 mph - N/A   Clear
10:35 AM 59.5 °F 48.2 °F 66% 30.11 in 10.0 mi Calm Calm - N/A   Clear
10:55 AM 60.6 °F 47.5 °F 62% 30.11 in 10.0 mi Calm Calm - N/A   Clear
11:15 AM 60.8 °F 47.1 °F 61% 30.11 in 10.0 mi Calm Calm - N/A   Clear
11:35 AM 61.5 °F 47.7 °F 60% 30.11 in 10.0 mi Calm Calm - N/A   Clear
11:55 AM 62.6 °F 48.9 °F 61% 30.10 in 10.0 mi Calm Calm - N/A   Clear
12:15 PM 62.8 °F 50.9 °F 65% 30.10 in 10.0 mi ESE 3.5 mph - N/A   Clear
12:35 PM 61.9 °F 51.4 °F 69% 30.10 in 10.0 mi Calm Calm - N/A   Clear
12:55 PM 61.3 °F 51.8 °F 71% 30.09 in 10.0 mi Calm Calm - N/A   Clear
1:15 PM 60.4 °F 52.2 °F 74% 30.08 in 10.0 mi East 3.5 mph - N/A Rain Light Rain
1:35 PM 62.8 °F 50.9 °F 65% 30.08 in 10.0 mi Calm Calm - N/A   Clear
1:55 PM 64.2 °F 52.7 °F 66% 30.07 in 10.0 mi Calm Calm - N/A   Clear
2:15 PM 63.5 °F 52.3 °F 67% 30.07 in 10.0 mi Calm Calm - N/A   Clear
2:35 PM 64.2 °F 52.5 °F 66% 30.05 in 10.0 mi Calm Calm - N/A   Clear
2:55 PM 64.9 °F 53.2 °F 66% 30.05 in 10.0 mi ESE 5.8 mph - N/A   Clear
3:15 PM 63.1 °F 54.1 °F 72% 30.05 in 10.0 mi Calm Calm - N/A   Clear
3:35 PM 63.7 °F 54.1 °F 71% 30.04 in 10.0 mi Calm Calm - N/A   Clear
3:55 PM 63.7 °F 54.5 °F 72% 30.04 in 10.0 mi SSE 3.5 mph - N/A   Clear
4:15 PM 64.4 °F 54.3 °F 70% 30.04 in 10.0 mi Calm Calm - N/A   Clear
4:35 PM 63.7 °F 54.3 °F 72% 30.04 in 10.0 mi Calm Calm - N/A   Clear
4:55 PM 63.1 °F 54.0 °F 72% 30.04 in 10.0 mi Calm Calm - N/A   Scattered Clouds
5:15 PM 61.9 °F 54.0 °F 75% 30.03 in 10.0 mi Calm Calm - N/A   Clear
5:35 PM 61.7 °F 54.3 °F 77% 30.04 in 10.0 mi SE 4.6 mph - N/A   Clear
5:55 PM 60.8 °F 54.1 °F 79% 30.04 in 10.0 mi SE 3.5 mph - N/A   Clear
6:15 PM 61.7 °F 53.6 °F 75% 30.05 in 10.0 mi SSW 3.5 mph - N/A   Scattered Clouds
6:35 PM 61.7 °F 53.8 °F 75% 30.04 in 10.0 mi Calm Calm - N/A   Scattered Clouds
6:55 PM 61.0 °F 53.1 °F 75% 30.05 in 10.0 mi SSW 4.6 mph - N/A   Scattered Clouds
7:15 PM 60.8 °F 52.9 °F 75% 30.05 in 10.0 mi Calm Calm - N/A   Scattered Clouds
7:35 PM 60.6 °F 52.9 °F 76% 30.06 in 10.0 mi SW 3.5 mph - N/A   Mostly Cloudy
7:55 PM 60.3 °F 52.7 °F 76% 30.06 in 10.0 mi Calm Calm - N/A   Mostly Cloudy
8:15 PM 59.7 °F 52.7 °F 78% 30.06 in 10.0 mi Calm Calm - N/A   Scattered Clouds
8:35 PM 59.7 °F 52.7 °F 78% 30.06 in 10.0 mi WNW 4.6 mph - N/A   Clear
8:55 PM 58.5 °F 52.7 °F 81% 30.06 in 10.0 mi Calm Calm - N/A   Clear
9:15 PM 56.3 °F 55.2 °F 96% 30.06 in 10.0 mi Calm Calm - N/A   Clear
9:35 PM 56.8 °F 55.2 °F 94% 30.06 in 10.0 mi Calm Calm - N/A   Clear
9:55 PM 55.0 °F 54.5 °F 98% 30.07 in 10.0 mi Calm Calm - N/A   Clear
10:15 PM 55.0 °F 54.7 °F 99% 30.06 in 10.0 mi Calm Calm - N/A   Clear
10:35 PM 55.8 °F 54.7 °F 96% 30.07 in 10.0 mi Calm Calm - N/A   Clear
10:55 PM 55.0 °F 54.5 °F 98% 30.07 in 10.0 mi Calm Calm - N/A   Clear
11:15 PM 56.1 °F 55.4 °F 97% 30.07 in 10.0 mi Calm Calm - N/A   Clear
11:35 PM 54.5 °F 54.5 °F 100% 30.05 in 10.0 mi Calm Calm - N/A   Clear
11:55 PM 55.6 °F 55.4 °F 99% 30.05 in 10.0 mi Calm Calm - N/A   Clear